Temp
-4 -4 -4 -4 -4 -4 -4 -4 -4 -4 -5 -5 -5 -5 -5 -5 -6 -6 -6 -6 -7 -7 -7 -7 -7 -7 -8 -8 -8 -8 -9 -9 -9 -9 -9 -9 -9 -9 -9 -10 -10 -10 -10
-5 -5 -5 -4 -4 -4 -4 -4 -4 -4 -5 -6 -6 -6 -6 -6 -6 -6 -6 -6 -7 -7 -8 -8 -7 -8 -8 -8 -8 -8 -9 -9 -9 -9 -9 -9 -9 -10 -9 -9 -9 -9 -9
-5 -5 -5 -4 -4 -4 -4 -4 -4 -4 -5 -5 -4 -5 -6 -6 -7 -7 -6 -6 -7 -7 -8 -8 -8 -8 -8 -8 -8 -8 -8 -8 -8 -9 -9 -9 -9 -10 -10 -10 -9 -9 -10
-5 -5 -5 -5 -4 -4 -4 -4 -4 -4 -4 -4 -4 -5 -5 -6 -6 -6 -6 -6 -6 -6 -7 -7 -7 -7 -7 -7 -8 -8 -9 -9 -9 -9 -9 -9 -9 -9 -9 -10 -10 -10 -10
-5 -5 -5 -5 -5 -4 -5 -5 -5 -5 -4 -5 -5 -5 -5 -6 -6 -6 -6 -6 -6 -6 -7 -7 -7 -8 -8 -8 -8 -8 -8 -8 -8 -9 -9 -9 -9 -9 -9 -9 -9 -10 -10
-5 -5 -5 -5 -5 -5 -5 -5 -5 -5 -5 -5 -6 -6 -6 -6 -6 -7 -7 -7 -7 -7 -7 -7 -7 -7 -8 -8 -8 -8 -8 -8 -8 -8 -9 -9 -9 -9 -9 -9 -9 -9 -9
-6 -6 -6 -6 -6 -6 -6 -6 -6 -5 -6 -6 -6 -6 -7 -7 -7 -7 -7 -7 -7 -7 -7 -7 -8 -8 -8 -8 -8 -8 -8 -9 -9 -9 -9 -9 -9 -10 -9 -9 -9 -10 -9
-7 -7 -7 -7 -7 -7 -7 -6 -6 -6 -6 -6 -6 -7 -7 -8 -8 -8 -7 -7 -7 -7 -7 -7 -7 -8 -8 -9 -9 -9 -9 -9 -9 -9 -9 -9 -9 -9 -9 -9 -9 -9 -9
-7 -7 -7 -7 -7 -7 -7 -7 -7 -7 -7 -7 -7 -7 -7 -8 -8 -8 -7 -7 -7 -7 -7 -7 -8 -8 -8 -8 -8 -8 -8 -8 -9 -9 -9 -9 -9 -9 -9 -9 -9 -9 -9
-7 -7 -7 -7 -7 -7 -7 -7 -7 -7 -7 -7 -7 -7 -7 -7 -7 -7 -7 -7 -6 -6 -7 -7 -7 -8 -8 -8 -8 -9 -9 -9 -9 -9 -9 -9 -9 -9 -9 -9 -9 -9 -9
-7 -7 -7 -7 -8 -8 -8 -7 -7 -7 -7 -7 -7 -7 -7 -7 -7 -7 -7 -6 -7 -6 -7 -7 -7 -8 -8 -8 -8 -8 -8 -9 -9 -9 -9 -9 -9 -9 -9 -9 -9 -9 -9
-7 -7 -7 -8 -7 -7 -8 -7 -7 -7 -7 -7 -7 -7 -7 -7 -7 -7 -7 -7 -7 -6 -6 -7 -7 -7 -6 -7 -7 -8 -8 -9 -9 -9 -8 -8 -8 -8 -8 -9 -8 -8 -8
-6 -6 -7 -7 -7 -7 -7 -7 -7 -7 -8 -8 -7 -8 -8 -8 -7 -7 -7 -7 -6 -5 -5 -5 -5 -6 -6 -6 -6 -7 -7 -7 -7 -7 -7 -7 -7 -7 -7 -8 -8 -8 -9
-6 -6 -6 -6 -7 -7 -7 -7 -7 -7 -7 -8 -8 -8 -7 -7 -7 -6 -6 -6 -6 -5 -5 -5 -5 -6 -5 -5 -5 -6 -6 -6 -6 -7 -7 -7 -7 -7 -7 -7 -7 -8 -8
-5 -5 -6 -6 -6 -6 -6 -6 -6 -6 -6 -6 -6 -6 -6 -6 -6 -6 -6 -6 -6 -5 -5 -5 -5 -5 -5 -5 -5 -6 -6 -6 -7 -7 -6 -6 -6 -6 -6 -6 -6 -7 -8
-5 -5 -5 -5 -6 -5 -5 -5 -5 -5 -5 -5 -5 -5 -5 -5 -5 -5 -5 -5 -5 -5 -5 -5 -5 -5 -5 -5 -5 -6 -6 -7 -7 -7 -6 -7 -6 -6 -6 -6 -6 -6 -7
-5 -5 -4 -4 -5 -5 -5 -5 -5 -5 -5 -5 -5 -5 -5 -5 -5 -5 -5 -5 -5 -5 -5 -5 -5 -5 -5 -5 -5 -6 -6 -6 -6 -6 -6 -6 -6 -5 -5 -5 -5 -6 -7
-5 -5 -5 -5 -5 -5 -5 -5 -5 -5 -5 -5 -5 -5 -5 -5 -5 -5 -5 -5 -5 -5 -6 -6 -5 -5 -5 -6 -6 -6 -6 -5 -5 -5 -5 -5 -6 -6 -5 -4 -6 -7 -6
-6 -6 -5 -5 -5 -5 -5 -5 -5 -5 -5 -5 -5 -5 -5 -5 -5 -5 -5 -6 -6 -6 -6 -5 -6 -6 -6 -6 -6 -6 -6 -6 -5 -5 -5 -5 -5 -5 -5 -5 -6 -5 -5
-6 -6 -6 -6 -6 -5 -5 -5 -5 -5 -5 -5 -5 -6 -6 -6 -6 -6 -6 -6 -6 -6 -6 -6 -6 -6 -6 -6 -6 -6 -6 -6 -5 -5 -5 -5 -5 -5 -5 -5 -5 -6 -6
-6 -6 -6 -6 -6 -6 -6 -6 -6 -6 -6 -6 -6 -6 -6 -6 -6 -7 -7 -7 -7 -7 -7 -6 -6 -6 -7 -7 -7 -7 -7 -6 -6 -6 -5 -6 -6 -6 -5 -5 -5 -8 -8
-6 -6 -6 -6 -6 -6 -6 -7 -7 -7 -7 -7 -6 -6 -7 -7 -7 -7 -7 -7 -7 -7 -7 -7 -7 -7 -7 -7 -7 -7 -7 -7 -7 -7 -6 -6 -6 -6 -6 -6 -6 -7 -7
-7 -7 -7 -7 -7 -7 -7 -7 -7 -7 -7 -7 -7 -7 -7 -7 -7 -7 -7 -8 -8 -8 -8 -8 -8 -8 -8 -8 -7 -7 -7 -7 -8 -7 -7 -7 -7 -7 -7 -6 -7 -9 -9
-8 -8 -8 -8 -8 -8 -8 -8 -8 -8 -8 -8 -8 -8 -8 -8 -8 -9 -9 -9 -9 -9 -8 -8 -8 -8 -8 -8 -7 -8 -7 -8 -8 -7 -7 -7 -7 -7 -8 -8 -8 -9 -9
-9 -9 -8 -8 -8 -8 -9 -9 -9 -9 -9 -9 -9 -9 -9 -9 -9 -9 -9 -9 -9 -8 -8 -8 -9 -9 -9 -8 -8 -8 -8 -8 -8 -8 -8 -8 -8 -8 -9 -9 -9 -10 -10
-8 -9 -9 -9 -9 -8 -8 -8 -8 -9 -9 -9 -9 -9 -9 -8 -8 -8 -9 -9 -9 -9 -9 -9 -9 -9 -9 -9 -9 -9 -9 -9 -8 -8 -8 -8 -8 -8 -9 -10 -10 -10 -11
Height
5910 5915 5918 5921 5925 5928 5931 5933 5934 5935 5936 5938 5939 5940 5941 5942 5942 5943 5943 5942 5942 5942 5942 5942 5942 5942 5943 5942 5941 5941 5941 5941 5940 5938 5937 5935 5933 5931 5929 5926 5922 5919 5916
5906 5911 5916 5919 5922 5926 5928 5931 5932 5932 5933 5933 5934 5935 5936 5938 5940 5940 5940 5940 5939 5939 5940 5940 5941 5941 5941 5941 5941 5940 5938 5937 5937 5937 5935 5933 5931 5928 5925 5923 5920 5917 5915
5904 5908 5913 5917 5920 5923 5926 5928 5929 5929 5930 5931 5931 5932 5933 5934 5936 5937 5937 5937 5937 5937 5938 5938 5938 5940 5939 5939 5939 5938 5937 5935 5933 5932 5931 5931 5929 5927 5924 5921 5918 5916 5913
5902 5906 5910 5913 5916 5920 5922 5924 5925 5927 5928 5929 5930 5930 5931 5932 5933 5934 5934 5934 5934 5935 5935 5936 5936 5937 5937 5937 5937 5936 5934 5933 5931 5930 5927 5925 5923 5921 5919 5916 5913 5910 5907
5898 5903 5907 5910 5913 5916 5918 5920 5922 5924 5926 5927 5927 5928 5929 5930 5931 5932 5932 5932 5933 5933 5933 5934 5934 5934 5933 5933 5932 5932 5931 5930 5929 5926 5924 5922 5919 5916 5913 5910 5907 5903 5900
5894 5898 5902 5906 5909 5912 5914 5917 5919 5921 5923 5924 5925 5926 5928 5929 5930 5930 5930 5931 5932 5933 5933 5932 5932 5932 5931 5930 5929 5927 5926 5925 5924 5922 5920 5918 5914 5910 5907 5904 5902 5899 5898
5889 5893 5898 5902 5905 5908 5911 5914 5916 5918 5920 5921 5922 5924 5925 5927 5928 5928 5928 5929 5930 5931 5931 5931 5931 5930 5928 5927 5926 5924 5922 5920 5919 5916 5915 5913 5910 5906 5901 5898 5896 5892 5889
5885 5890 5894 5899 5902 5905 5908 5911 5913 5916 5917 5918 5920 5921 5922 5923 5924 5925 5924 5926 5926 5926 5926 5927 5927 5926 5925 5924 5921 5920 5917 5916 5913 5908 5907 5907 5904 5900 5894 5891 5888 5884 5882
5881 5887 5893 5897 5899 5902 5906 5908 5910 5912 5914 5915 5916 5918 5919 5920 5920 5920 5920 5920 5921 5922 5922 5922 5921 5921 5920 5917 5916 5915 5914 5914 5910 5905 5900 5898 5896 5892 5888 5883 5881 5873 5872
5878 5884 5888 5891 5894 5898 5900 5903 5905 5907 5909 5910 5913 5914 5915 5916 5916 5915 5915 5914 5916 5916 5916 5917 5916 5916 5914 5911 5909 5906 5906 5907 5901 5898 5896 5891 5888 5884 5879 5874 5872 5865 5858
5873 5875 5879 5884 5888 5891 5893 5896 5899 5901 5903 5905 5907 5909 5909 5909 5909 5909 5909 5908 5909 5907 5908 5909 5908 5907 5905 5903 5901 5899 5899 5896 5892 5888 5886 5883 5879 5874 5869 5863 5858 5852 5845
5865 5870 5874 5877 5880 5881 5885 5889 5891 5894 5896 5899 5900 5902 5903 5902 5902 5902 5901 5901 5901 5900 5901 5902 5901 5899 5898 5896 5893 5891 5888 5883 5879 5875 5873 5871 5868 5864 5858 5850 5843 5838 5833
5855 5859 5865 5869 5872 5875 5877 5880 5882 5884 5887 5890 5892 5894 5894 5894 5894 5893 5893 5894 5893 5893 5893 5893 5892 5891 5888 5885 5883 5880 5876 5871 5867 5862 5859 5855 5853 5849 5845 5841 5831 5824 5818
5845 5847 5851 5855 5859 5862 5865 5868 5870 5873 5876 5879 5881 5883 5884 5885 5885 5885 5885 5885 5885 5884 5884 5884 5882 5879 5876 5873 5871 5868 5864 5860 5854 5849 5845 5841 5835 5831 5828 5825 5818 5809 5801
5837 5840 5843 5845 5848 5851 5853 5856 5859 5863 5866 5869 5871 5872 5873 5875 5876 5876 5876 5876 5875 5874 5873 5872 5870 5868 5865 5861 5857 5855 5852 5849 5843 5836 5829 5824 5817 5809 5804 5801 5800 5794 5786
5830 5833 5835 5837 5838 5840 5843 5847 5849 5852 5856 5858 5860 5862 5863 5864 5865 5866 5866 5865 5865 5864 5862 5861 5858 5855 5853 5849 5846 5843 5840 5836 5832 5824 5816 5808 5801 5793 5784 5779 5777 5776 5771
5820 5824 5827 5830 5832 5835 5836 5838 5841 5843 5845 5848 5849 5850 5852 5853 5853 5853 5853 5853 5853 5852 5851 5849 5847 5844 5841 5838 5834 5830 5824 5819 5812 5808 5802 5796 5788 5779 5768 5762 5754 5750 5750
5811 5815 5817 5820 5823 5825 5826 5829 5831 5833 5834 5835 5837 5837 5838 5840 5842 5842 5842 5841 5841 5839 5838 5836 5834 5831 5828 5825 5821 5817 5812 5805 5797 5790 5786 5781 5775 5768 5757 5744 5731 5726 5715
5800 5804 5807 5810 5813 5815 5816 5818 5820 5821 5822 5824 5825 5827 5828 5828 5829 5829 5829 5828 5827 5826 5824 5822 5820 5817 5814 5811 5806 5802 5797 5791 5785 5779 5772 5766 5760 5751 5743 5731 5717 5694 5678
5788 5792 5795 5797 5800 5803 5805 5807 5809 5810 5810 5811 5813 5814 5815 5816 5815 5815 5815 5814 5813 5812 5810 5808 5805 5803 5799 5795 5791 5787 5782 5777 5772 5765 5760 5755 5746 5737 5725 5715 5707 5700 5698
5774 5779 5782 5785 5788 5790 5793 5795 5795 5796 5797 5798 5799 5800 5801 5800 5801 5800 5800 5800 5799 5797 5795 5793 5791 5788 5784 5779 5776 5773 5768 5763 5758 5753 5748 5743 5736 5727 5720 5712 5704 5698 5697
5761 5765 5768 5770 5773 5775 5777 5779 5780 5781 5782 5784 5784 5785 5785 5785 5785 5786 5785 5785 5783 5781 5780 5777 5775 5772 5768 5764 5761 5758 5754 5749 5745 5740 5736 5731 5726 5720 5712 5704 5698 5698 5697
5747 5751 5754 5755 5756 5759 5760 5761 5763 5765 5765 5766 5767 5769 5769 5770 5770 5769 5768 5767 5766 5764 5762 5760 5757 5756 5753 5749 5746 5741 5738 5735 5732 5729 5723 5717 5713 5710 5705 5701 5692 5688 5687
5730 5734 5738 5741 5743 5743 5744 5746 5747 5749 5750 5751 5752 5752 5752 5752 5752 5751 5750 5750 5749 5747 5745 5743 5742 5739 5736 5734 5732 5727 5724 5720 5719 5717 5712 5707 5701 5696 5694 5692 5689 5686 5685
5715 5718 5722 5723 5726 5728 5729 5730 5730 5731 5732 5734 5734 5735 5735 5735 5735 5734 5733 5732 5731 5730 5728 5727 5726 5724 5722 5720 5717 5713 5711 5708 5706 5705 5702 5697 5693 5690 5687 5684 5684 5683 5681
5698 5700 5702 5704 5705 5709 5711 5711 5713 5714 5715 5717 5717 5717 5718 5718 5717 5717 5716 5715 5714 5712 5710 5709 5707 5706 5705 5703 5701 5698 5697 5695 5692 5690 5689 5688 5686 5683 5681 5678 5677 5675 5673
Wind_Speed
20 22 22 19 18 17 15 13 13 13 13 15 16 15 13 13 13 11 11 13 13 10 9 10 9 10 11 12 12 13 13 11 10 12 11 13 15 19 21 22 23 25 26
23 23 22 21 19 17 14 11 11 13 15 16 17 16 16 15 13 14 13 13 15 15 12 9 10 10 11 14 14 15 18 18 18 16 16 16 16 19 23 23 23 24 27
24 23 22 21 20 17 12 8 8 8 8 8 6 9 12 13 12 11 11 12 13 13 11 9 10 8 11 13 14 16 17 19 22 24 22 21 21 22 24 25 28 29 30
22 22 22 21 20 16 11 11 11 8 7 8 8 9 9 7 6 6 6 6 6 5 5 5 8 9 11 14 16 17 20 21 23 24 26 26 27 29 30 31 33 35 36
23 21 20 21 18 14 13 12 12 9 10 10 9 8 6 6 4 4 3 2 3 4 3 4 2 5 9 11 10 13 15 18 21 24 26 28 30 33 35 35 35 38 38
23 21 21 20 16 15 14 15 12 10 11 10 8 5 4 4 3 3 2 4 7 7 4 3 2 2 4 7 9 13 16 15 16 20 23 25 29 34 37 37 37 40 43
23 22 20 17 15 17 16 14 12 10 11 9 8 8 6 4 3 3 3 6 7 5 5 3 2 5 9 11 13 15 18 21 24 25 27 27 28 32 39 41 41 43 45
25 22 19 15 15 18 17 14 14 13 13 11 9 8 7 6 7 10 12 10 8 9 9 12 11 13 13 15 18 20 22 24 27 33 33 33 36 37 40 42 41 45 42
27 21 18 18 18 19 17 17 17 15 12 11 13 12 10 12 13 13 14 17 16 16 16 16 18 18 21 24 25 26 26 25 31 33 35 38 38 42 45 48 48 50 51
27 21 23 27 25 22 21 21 19 18 14 15 13 14 15 15 16 18 20 20 18 22 23 21 21 23 24 26 29 31 33 31 35 35 36 40 44 48 50 51 49 53 57
29 35 33 31 29 29 27 25 25 23 21 20 18 17 18 18 23 25 25 26 25 26 25 25 26 27 29 32 35 35 33 34 38 40 42 46 49 52 50 53 55 57 61
38 37 35 32 32 32 31 33 30 28 27 26 27 25 24 25 26 27 30 30 32 30 28 29 31 34 35 36 38 39 39 41 45 49 49 49 53 51 52 57 59 60 63
39 38 38 33 32 34 37 39 39 36 34 33 32 32 32 32 34 34 34 33 33 32 31 33 35 36 38 39 42 44 47 50 52 54 54 54 54 54 55 57 62 65 64
37 40 41 42 42 41 39 41 43 43 40 40 38 38 39 39 37 37 36 37 36 35 37 37 38 40 42 45 47 50 51 53 57 59 59 60 63 62 60 58 63 67 68
30 34 40 44 45 46 48 47 47 45 43 39 39 40 39 38 39 40 41 40 40 40 40 41 43 44 47 50 53 54 55 57 59 61 65 65 65 66 64 63 57 64 65
31 31 37 41 42 43 42 41 39 37 37 37 36 35 34 35 35 36 38 41 41 42 44 46 48 49 51 54 56 57 58 59 59 62 63 61 61 66 69 70 68 62 62
32 34 34 34 36 39 42 42 41 39 39 38 38 38 37 38 38 39 40 42 42 45 48 50 50 52 54 55 58 62 63 65 63 57 54 54 55 57 65 67 72 69 66
37 35 37 38 38 39 40 40 40 41 41 42 42 43 43 41 41 41 43 46 48 50 51 52 53 56 57 59 62 64 63 63 58 60 55 50 49 53 62 70 75 76 73
42 40 39 39 40 42 44 45 46 46 45 45 45 44 44 45 45 46 48 50 51 53 54 55 57 58 62 65 66 66 63 57 57 59 59 54 56 58 61 62 57 73 64
45 46 45 44 44 44 46 47 47 47 47 47 47 47 48 48 50 51 52 53 55 57 58 59 60 63 65 67 67 67 66 62 60 58 57 53 53 51 55 56 41 41 41
51 52 52 52 51 50 49 49 50 50 51 51 51 51 53 54 54 55 56 57 59 60 61 63 64 65 68 71 69 63 59 58 60 59 55 53 47 48 55 53 49 36 23
53 52 53 54 55 55 54 53 53 55 55 56 57 56 56 56 58 61 61 61 63 65 66 67 68 70 71 72 69 65 61 61 60 58 53 49 46 45 48 47 42 38 33
58 56 54 56 56 57 58 58 58 60 61 60 60 61 62 63 63 64 65 66 67 68 70 72 73 72 71 66 67 68 64 62 54 54 52 49 46 44 42 46 38 23 16
59 58 61 61 59 59 60 61 61 62 62 62 64 65 66 66 67 67 68 70 72 73 75 75 74 73 69 65 63 62 58 52 53 53 49 46 45 45 38 37 36 26 22
55 57 62 63 64 66 66 66 68 68 69 68 69 69 69 69 70 72 74 75 76 76 77 75 72 69 66 63 66 62 53 54 52 54 47 44 42 42 41 37 29 26 27
58 62 65 68 67 65 66 69 71 73 75 76 74 73 74 75 76 77 76 76 76 77 75 71 68 66 65 65 66 64 55 53 49 49 49 44 40 40 38 39 38 33 27
Wind_Direction
195 198 194 197 199 202 208 219 232 242 245 245 244 246 244 245 250 261 273 281 284 290 292 290 295 310 330 337 338 341 338 347 343 344 344 345 345 348 349 347 343 345 347
193 195 201 201 203 206 210 227 249 252 246 247 249 247 247 248 247 253 262 272 279 279 280 291 293 307 320 330 334 334 336 337 341 343 339 340 344 344 342 344 344 339 338
197 196 198 200 202 202 204 227 238 241 226 225 219 224 232 237 245 254 261 266 269 274 281 278 284 286 299 309 316 320 327 331 335 336 334 333 327 330 329 331 331 331 331
204 200 199 200 200 199 210 208 220 217 191 198 202 201 211 213 220 236 248 255 264 285 304 299 306 309 301 312 314 313 316 318 322 323 324 324 323 321 322 322 324 327 332
205 206 208 204 199 202 201 205 205 191 185 186 195 191 184 167 189 209 215 142 114 95 70 78 47 336 327 327 347 328 324 319 318 313 310 311 313 311 313 317 321 319 319
205 206 202 200 193 189 187 192 199 207 197 188 181 175 159 153 162 191 188 141 124 122 122 84 27 314 332 334 331 313 315 319 317 313 310 314 306 308 312 314 315 314 318
197 201 195 187 187 186 191 197 208 206 197 189 191 191 197 195 214 243 208 168 152 164 181 229 271 306 305 299 295 295 299 308 310 305 307 309 301 303 300 306 309 311 311
199 203 191 186 188 193 189 191 206 213 217 216 212 202 209 222 239 244 249 236 229 240 242 245 247 261 274 287 286 292 297 305 309 309 312 314 319 318 309 308 313 316 315
211 198 188 190 194 196 195 196 208 214 221 224 220 224 221 219 231 235 241 244 243 251 255 260 269 275 282 289 290 291 290 302 302 297 302 312 312 311 309 311 317 310 308
212 202 201 201 199 197 202 207 211 217 224 225 232 242 247 251 262 253 256 256 250 251 255 261 269 272 273 277 281 285 291 297 287 289 291 300 306 306 305 305 308 306 304
209 208 206 204 210 207 209 216 222 230 237 239 243 252 261 274 271 272 271 264 261 261 265 267 271 273 277 283 287 290 295 293 295 295 297 298 301 302 301 299 299 298 298
215 218 215 218 214 222 217 222 225 230 237 242 248 250 257 264 276 276 274 271 267 269 272 272 276 280 284 284 287 290 292 290 293 295 296 299 300 298 297 295 294 293 294
216 221 223 225 221 223 226 225 227 230 233 237 247 253 258 260 266 270 273 273 272 277 280 282 284 284 287 294 294 293 294 296 298 300 304 302 298 295 293 294 294 294 290
213 212 214 219 225 225 227 230 232 235 237 240 242 247 252 258 262 266 269 273 272 275 278 281 285 290 293 293 294 295 297 300 303 305 303 301 300 299 296 292 290 290 287
224 223 225 227 229 230 233 236 241 242 245 248 248 251 254 258 262 266 269 271 274 276 280 283 285 288 290 293 296 297 300 303 305 303 302 301 301 302 300 295 292 290 292
231 224 222 229 235 241 244 246 251 253 254 255 254 252 255 259 261 263 265 268 271 274 279 282 284 287 290 293 296 299 300 301 301 299 300 301 301 298 295 293 294 291 288
240 239 235 230 232 235 242 245 248 250 250 250 252 256 258 259 260 262 265 269 274 276 278 281 283 286 289 294 296 300 302 303 304 301 301 301 297 297 298 300 297 292 286
244 241 241 242 241 242 243 244 246 248 248 249 250 253 257 261 265 268 270 272 274 276 278 281 284 287 291 295 297 298 300 303 305 305 306 306 299 300 302 300 298 296 290
247 246 243 243 243 245 248 248 248 249 251 253 256 258 261 262 265 268 270 272 274 275 278 282 286 288 292 295 297 300 305 304 306 304 308 308 309 308 306 302 305 294 269
248 249 250 249 250 250 249 250 252 254 256 257 258 259 261 263 265 267 268 271 273 276 279 284 286 289 290 294 298 301 303 304 306 305 306 308 310 305 308 324 294 277 261
245 248 251 252 252 253 253 252 254 254 255 257 259 261 262 263 264 266 268 271 274 278 281 283 285 288 293 295 300 305 305 305 306 304 305 309 304 302 301 313 334 295 306
246 246 247 249 251 251 251 252 254 255 257 258 259 260 261 262 264 267 271 274 275 277 280 284 287 290 293 294 298 301 299 303 301 302 303 305 306 304 306 311 317 304 302
247 248 248 249 248 250 252 252 253 254 255 255 257 259 261 263 265 267 269 272 276 279 282 285 288 291 294 297 299 299 295 296 296 301 302 305 309 309 312 311 315 318 296
243 244 246 246 248 250 252 254 254 255 256 259 261 262 264 266 269 272 274 276 278 280 282 286 289 292 296 296 296 299 298 296 295 298 299 300 305 308 311 309 306 301 293
248 244 242 246 249 251 254 255 254 254 256 259 261 264 268 271 273 274 275 276 278 281 282 284 288 290 293 290 289 297 297 295 293 297 297 297 297 300 302 302 291 292 285
247 247 249 251 253 251 252 254 255 257 259 260 263 265 267 271 272 273 274 275 277 278 281 283 287 290 289 285 289 292 291 287 288 289 291 293 295 294 292 291 287 286 281